Tracking 30918 objects as of 2-Jul-2025
HD Live streaming from Space Station
objects crossing your sky now

THORAD AGENA D DEB

Track THORAD AGENA D DEB now!
10-day predictions


NORAD ID: 4993
Int'l Code: 1970-025HP
Perigee: 835.5 km
Apogee: 958.7 km
Inclination: 100.2 °
Period: 102.8 minutes
Semi major axis: 7268 km
RCS: 0.013 m2 (small)
Launch date: April 8, 1970
Source: United States (US)
Launch site: AIR FORCE WESTERN TEST RANGE (AFWTR)

Note: This is SATELLITE DEBRIS
Your satellite tracking list
Your tracking list is empty




NASA's NSSDC Master Catalog

Two Line Element Set (TLE):
1 04993U 70025HP  25182.70340274  .00001036  00000-0  70410-3 0  9999
2 04993 100.1765 285.8419 0084789 205.5234 154.1729 14.01107785789637
Source of the keplerian elements: AFSPC